WJA2214 CYLW-MMPR

Flight info

Callsign WJA2214
Flight time N/A
Altitude 35000
Route TUKUL DCT GEG DCT BVL DCT PAWLY DCT KA27O DCT VYLLA UT12 CUL UJ7 MZT J141 OBRUG OBRUG1B
Aircraft B738/M-SDE2E3FGHIRWXY/LB1

Departure

Time N/A
Airport Kelowna International Airport (CYLW)

Arrival

Time 2026-04-28 00:01
Airport Puerto Vallarta International Airport (MMPR)
Time Latitude Longitude Altitude Speed Heading
2026-04-27 21:55 34.89220 -112.11363 34915 ft 433 kts 178°
2026-04-27 21:55 34.85196 -112.10176 34947 ft 431 kts 178°
2026-04-27 21:56 34.76496 -112.07661 34944 ft 426 kts 179°
2026-04-27 21:57 34.70739 -112.05990 34944 ft 424 kts 179°
2026-04-27 21:57 34.64971 -112.04320 34941 ft 427 kts 179°
2026-04-27 21:58 34.59201 -112.02659 34930 ft 431 kts 179°
2026-04-27 21:58 34.53334 -112.00963 34907 ft 434 kts 179°
2026-04-27 21:59 34.47460 -111.99219 34900 ft 434 kts 177°
2026-04-27 21:59 34.41721 -111.97239 34909 ft 429 kts 176°
2026-04-27 22:00 34.35976 -111.95213 34933 ft 430 kts 176°
2026-04-27 22:00 34.30204 -111.93208 34944 ft 431 kts 176°
2026-04-27 22:01 34.24423 -111.91227 34933 ft 432 kts 176°
2026-04-27 22:01 34.18621 -111.89246 34907 ft 432 kts 176°
2026-04-27 22:02 34.12882 -111.87285 34951 ft 432 kts 176°
2026-04-27 22:02 34.07052 -111.85301 34927 ft 438 kts 176°
2026-04-27 22:03 34.01146 -111.83283 34933 ft 445 kts 176°
2026-04-27 22:03 33.95153 -111.81272 34952 ft 450 kts 176°
2026-04-27 22:04 33.89100 -111.79212 34942 ft 453 kts 176°
2026-04-27 22:04 33.83038 -111.77137 34944 ft 453 kts 176°
2026-04-27 22:05 33.77013 -111.75077 34881 ft 452 kts 176°
2026-04-27 22:05 33.70977 -111.73047 34952 ft 450 kts 176°
2026-04-27 22:06 33.64949 -111.71023 34955 ft 449 kts 177°
2026-04-27 22:06 33.58929 -111.68998 34946 ft 449 kts 176°
2026-04-27 22:07 33.52921 -111.66978 34923 ft 448 kts 177°
2026-04-27 22:07 33.46924 -111.64966 34949 ft 448 kts 177°
2026-04-27 22:08 33.40918 -111.62950 34952 ft 448 kts 177°
2026-04-27 22:08 33.34914 -111.60938 34974 ft 448 kts 177°
2026-04-27 22:09 33.28938 -111.58938 34929 ft 448 kts 177°
2026-04-27 22:09 33.22916 -111.56926 34959 ft 448 kts 177°
2026-04-27 22:10 33.16914 -111.54925 34928 ft 449 kts 177°
2026-04-27 22:10 33.10896 -111.52921 34912 ft 449 kts 177°
2026-04-27 22:11 33.04871 -111.50918 34895 ft 449 kts 178°
2026-04-27 22:11 32.98875 -111.48926 34914 ft 450 kts 178°
2026-04-27 22:12 32.92835 -111.46922 34929 ft 450 kts 178°
2026-04-27 22:12 32.86792 -111.44921 34928 ft 451 kts 178°
2026-04-27 22:13 32.80734 -111.42917 34921 ft 451 kts 178°
2026-04-27 22:13 32.74719 -111.40930 34938 ft 451 kts 178°
2026-04-27 22:14 32.68659 -111.38932 34945 ft 452 kts 178°
2026-04-27 22:14 32.62602 -111.36937 34954 ft 452 kts 178°
2026-04-27 22:15 32.56532 -111.34939 34957 ft 451 kts 179°
2026-04-27 22:15 32.50512 -111.32962 34959 ft 451 kts 179°
2026-04-27 22:16 32.44445 -111.30973 34966 ft 451 kts 179°
2026-04-27 22:16 32.38436 -111.29005 34940 ft 451 kts 179°
2026-04-27 22:17 32.32380 -111.27024 34927 ft 450 kts 179°
2026-04-27 22:17 32.26341 -111.25051 34942 ft 450 kts 179°
2026-04-27 22:18 32.20304 -111.23082 34953 ft 449 kts 179°
2026-04-27 22:18 32.14313 -111.21132 34955 ft 449 kts 179°
2026-04-27 22:19 32.08280 -111.19169 34942 ft 449 kts 179°
2026-04-27 22:19 32.02255 -111.17213 34948 ft 449 kts 179°
2026-04-27 22:20 31.96229 -111.15259 34933 ft 449 kts 179°
2026-04-27 22:20 31.90189 -111.13302 34906 ft 450 kts 179°
2026-04-27 22:21 31.84196 -111.11369 34866 ft 449 kts 179°
2026-04-27 22:21 31.78163 -111.09415 34878 ft 450 kts 179°
2026-04-27 22:22 31.72105 -111.07460 34888 ft 451 kts 179°
2026-04-27 22:22 31.66046 -111.05508 34883 ft 451 kts 179°
2026-04-27 22:23 31.60008 -111.03566 34952 ft 452 kts 179°
2026-04-27 22:23 31.53931 -111.01613 34981 ft 453 kts 179°
2026-04-27 22:24 31.47848 -110.99661 34997 ft 453 kts 179°
2026-04-27 22:24 31.41775 -110.97712 35016 ft 452 kts 179°
2026-04-27 22:25 31.35707 -110.95770 34995 ft 451 kts 179°
2026-04-27 22:25 31.32682 -110.94640 34991 ft 464 kts 173°
2026-04-27 22:25 31.29731 -110.92949 35032 ft 477 kts 167°
2026-04-27 22:26 31.23891 -110.89311 34961 ft 474 kts 167°
2026-04-27 22:26 31.18057 -110.85603 34957 ft 479 kts 166°
2026-04-27 22:27 31.12185 -110.81951 34915 ft 477 kts 167°
2026-04-27 22:27 31.06292 -110.78344 34897 ft 478 kts 167°
2026-04-27 22:28 31.00428 -110.74760 34882 ft 479 kts 167°
2026-04-27 22:28 30.94546 -110.71067 34923 ft 479 kts 167°
2026-04-27 22:29 30.88629 -110.67519 34882 ft 477 kts 167°
2026-04-27 22:29 30.82744 -110.63926 34891 ft 478 kts 167°
2026-04-27 22:30 30.76855 -110.60324 34896 ft 477 kts 167°
2026-04-27 22:30 30.71004 -110.56756 34880 ft 478 kts 167°
2026-04-27 22:31 30.65112 -110.53155 34861 ft 478 kts 166°
2026-04-27 22:31 30.59225 -110.49574 34881 ft 477 kts 166°
2026-04-27 22:32 30.53331 -110.46002 34880 ft 478 kts 166°
2026-04-27 22:32 30.47476 -110.42447 34889 ft 478 kts 166°
2026-04-27 22:33 30.41557 -110.38895 34857 ft 481 kts 165°
2026-04-27 22:33 30.35653 -110.35270 34888 ft 481 kts 166°
2026-04-27 22:34 30.29710 -110.31698 34899 ft 481 kts 166°
2026-04-27 22:34 30.23785 -110.28094 34897 ft 483 kts 166°
2026-04-27 22:35 30.17876 -110.24554 34846 ft 480 kts 166°
2026-04-27 22:35 30.11939 -110.20994 34882 ft 482 kts 166°
2026-04-27 22:36 30.05971 -110.17423 34890 ft 482 kts 166°
2026-04-27 22:36 30.00047 -110.13749 34902 ft 487 kts 165°
2026-04-27 22:37 29.94028 -110.10313 34854 ft 482 kts 167°
2026-04-27 22:37 29.88031 -110.06702 34876 ft 487 kts 164°
2026-04-27 22:38 29.82068 -110.03137 34896 ft 486 kts 165°
2026-04-27 22:38 29.76069 -109.99538 34897 ft 485 kts 166°
2026-04-27 22:39 29.70058 -109.95944 34878 ft 487 kts 165°
2026-04-27 22:39 29.64042 -109.92350 34860 ft 486 kts 165°
2026-04-27 22:40 29.58065 -109.88805 34867 ft 485 kts 166°
2026-04-27 22:40 29.52073 -109.85241 34876 ft 485 kts 165°
2026-04-27 22:41 29.46069 -109.81697 34877 ft 484 kts 166°
2026-04-27 22:41 29.40066 -109.78165 34861 ft 484 kts 165°
2026-04-27 22:42 29.34096 -109.74549 34875 ft 483 kts 165°
2026-04-27 22:42 29.28145 -109.71052 34865 ft 483 kts 165°
2026-04-27 22:43 29.22153 -109.67554 34875 ft 484 kts 165°
2026-04-27 22:43 29.16168 -109.64013 34875 ft 484 kts 165°
2026-04-27 22:44 29.10191 -109.60496 34872 ft 483 kts 165°
2026-04-27 22:44 29.04245 -109.57021 34866 ft 483 kts 165°
2026-04-27 22:45 28.98253 -109.53561 34876 ft 481 kts 166°
2026-04-27 22:45 28.92267 -109.50066 34848 ft 483 kts 165°
2026-04-27 22:46 28.87300 -109.47177 34844 ft 478 kts 166°
2026-04-27 22:46 28.81384 -109.43704 34898 ft 478 kts 164°
2026-04-27 22:47 28.75447 -109.40165 34884 ft 482 kts 165°
2026-04-27 22:47 28.69463 -109.36600 34913 ft 486 kts 165°
2026-04-27 22:48 28.63343 -109.33317 34906 ft 488 kts 166°
2026-04-27 22:48 28.57254 -109.29735 34906 ft 496 kts 163°
2026-04-27 22:49 28.51208 -109.26113 34922 ft 491 kts 165°
2026-04-27 22:49 28.45113 -109.22527 34955 ft 492 kts 165°
2026-04-27 22:50 28.38995 -109.19020 34926 ft 491 kts 164°
2026-04-27 22:50 28.32922 -109.15538 34949 ft 491 kts 164°
2026-04-27 22:51 28.26834 -109.12039 34932 ft 489 kts 166°
2026-04-27 22:51 28.20732 -109.08569 34944 ft 492 kts 164°
2026-04-27 22:52 28.14642 -109.05034 34926 ft 492 kts 163°
2026-04-27 22:52 28.08547 -109.01579 34966 ft 485 kts 165°
2026-04-27 22:53 28.02472 -108.98151 34975 ft 490 kts 163°
2026-04-27 22:53 27.96434 -108.94576 34937 ft 492 kts 163°
2026-04-27 22:54 27.90365 -108.91077 34879 ft 491 kts 162°
2026-04-27 22:54 27.84337 -108.87559 34853 ft 479 kts 167°
2026-04-27 22:55 27.78324 -108.84340 34976 ft 477 kts 166°
2026-04-27 22:55 27.72327 -108.80853 34958 ft 490 kts 162°
2026-04-27 22:56 27.66249 -108.77288 34946 ft 494 kts 163°
2026-04-27 22:56 27.60072 -108.73776 34938 ft 497 kts 163°
2026-04-27 22:57 27.53935 -108.70305 34928 ft 495 kts 163°
2026-04-27 22:57 27.47816 -108.66821 34934 ft 490 kts 163°
2026-04-27 22:58 27.41724 -108.63366 34935 ft 489 kts 163°
2026-04-27 22:58 27.35725 -108.59829 34945 ft 485 kts 161°
2026-04-27 22:59 27.29733 -108.56478 34974 ft 488 kts 163°
2026-04-27 22:59 27.23601 -108.53103 34930 ft 494 kts 164°
2026-04-27 23:00 27.14288 -108.47967 34926 ft 495 kts 163°
2026-04-27 23:00 27.08098 -108.44483 34954 ft 501 kts 162°
2026-04-27 23:01 27.01850 -108.40908 34932 ft 505 kts 162°
2026-04-27 23:01 26.95588 -108.37407 34909 ft 504 kts 164°
2026-04-27 23:02 26.89313 -108.33861 34930 ft 505 kts 162°
2026-04-27 23:02 26.83034 -108.30288 34897 ft 507 kts 161°
2026-04-27 23:03 26.76740 -108.26744 34905 ft 505 kts 163°
2026-04-27 23:03 26.72031 -108.24168 34902 ft 504 kts 163°
2026-04-27 23:04 26.65835 -108.20648 34898 ft 502 kts 163°
2026-04-27 23:04 26.59550 -108.17226 34909 ft 502 kts 164°
2026-04-27 23:05 26.53119 -108.14509 34917 ft 490 kts 171°
2026-04-27 23:05 26.46642 -108.12087 34935 ft 490 kts 171°
2026-04-27 23:06 26.40165 -108.09638 34900 ft 491 kts 171°
2026-04-27 23:06 26.33760 -108.07173 34926 ft 490 kts 171°
2026-04-27 23:07 26.27293 -108.04723 34901 ft 490 kts 171°
2026-04-27 23:07 26.20809 -108.02240 34905 ft 494 kts 170°
2026-04-27 23:08 26.14304 -107.99748 34884 ft 495 kts 170°
2026-04-27 23:08 26.07795 -107.97259 34890 ft 494 kts 170°
2026-04-27 23:09 26.01266 -107.94736 34864 ft 496 kts 170°
2026-04-27 23:09 25.94781 -107.92271 34872 ft 496 kts 170°
2026-04-27 23:10 25.88222 -107.89818 34867 ft 497 kts 170°
2026-04-27 23:10 25.81699 -107.87309 34882 ft 496 kts 170°
2026-04-27 23:11 25.75172 -107.84830 34861 ft 495 kts 170°
2026-04-27 23:11 25.68660 -107.82363 34858 ft 494 kts 170°
2026-04-27 23:12 25.62149 -107.79901 34852 ft 494 kts 170°
2026-04-27 23:12 25.55675 -107.77456 34848 ft 495 kts 170°
2026-04-27 23:13 25.49150 -107.74991 34842 ft 496 kts 169°
2026-04-27 23:13 25.42619 -107.72523 34850 ft 496 kts 169°
2026-04-27 23:14 25.36071 -107.70052 34845 ft 497 kts 169°
2026-04-27 23:14 25.29516 -107.67584 34846 ft 497 kts 169°
2026-04-27 23:15 25.23000 -107.65132 34850 ft 497 kts 169°
2026-04-27 23:15 25.16449 -107.62670 34826 ft 497 kts 169°
2026-04-27 23:16 25.09894 -107.60213 34839 ft 497 kts 169°
2026-04-27 23:16 25.03381 -107.57777 34872 ft 498 kts 169°
2026-04-27 23:17 24.96767 -107.55295 34864 ft 498 kts 169°
2026-04-27 23:17 24.90241 -107.52863 34846 ft 498 kts 169°
2026-04-27 23:18 24.83688 -107.50418 34855 ft 497 kts 168°
2026-04-27 23:18 24.77156 -107.47883 34853 ft 502 kts 163°
2026-04-27 23:19 24.71088 -107.43863 34872 ft 514 kts 151°
2026-04-27 23:19 24.65264 -107.39263 34858 ft 515 kts 150°
2026-04-27 23:20 24.59417 -107.34715 34832 ft 514 kts 151°
2026-04-27 23:20 24.53572 -107.30254 34839 ft 514 kts 151°
2026-04-27 23:21 24.47695 -107.25785 34854 ft 514 kts 151°
2026-04-27 23:21 24.41807 -107.21304 34852 ft 514 kts 151°
2026-04-27 23:22 24.35931 -107.16847 34862 ft 514 kts 151°
2026-04-27 23:22 24.30048 -107.12396 34855 ft 514 kts 151°
2026-04-27 23:23 24.24199 -107.07971 34865 ft 513 kts 151°
2026-04-27 23:23 24.18316 -107.03524 34851 ft 513 kts 150°
2026-04-27 23:24 24.12431 -106.99081 34871 ft 513 kts 150°
2026-04-27 23:24 24.06549 -106.94645 34866 ft 513 kts 150°
2026-04-27 23:25 24.00662 -106.90209 34865 ft 513 kts 150°
2026-04-27 23:25 23.94817 -106.85812 34868 ft 513 kts 150°
2026-04-27 23:26 23.88918 -106.81385 34868 ft 513 kts 150°
2026-04-27 23:26 23.83031 -106.76972 34869 ft 513 kts 150°
2026-04-27 23:27 23.77144 -106.72562 34874 ft 513 kts 150°
2026-04-27 23:27 23.71285 -106.68176 34870 ft 513 kts 150°
2026-04-27 23:28 23.65392 -106.63770 34870 ft 513 kts 150°
2026-04-27 23:28 23.60485 -106.60104 34867 ft 513 kts 150°
2026-04-27 23:29 23.53599 -106.54968 34877 ft 513 kts 150°
2026-04-27 23:29 23.47695 -106.50571 34852 ft 513 kts 150°
2026-04-27 23:30 23.41807 -106.46187 34866 ft 513 kts 150°
2026-04-27 23:30 23.35947 -106.41829 34872 ft 513 kts 150°
2026-04-27 23:31 23.30051 -106.37449 34872 ft 513 kts 150°
2026-04-27 23:31 23.24150 -106.33069 34871 ft 513 kts 150°
2026-04-27 23:32 23.18241 -106.28688 34848 ft 513 kts 150°
2026-04-27 23:32 23.11982 -106.25163 34874 ft 502 kts 164°
2026-04-27 23:33 23.05448 -106.22489 34862 ft 502 kts 165°
2026-04-27 23:33 22.98897 -106.19790 34862 ft 503 kts 164°
2026-04-27 23:34 22.92368 -106.17034 34864 ft 504 kts 163°
2026-04-27 23:34 22.85872 -106.14274 34859 ft 504 kts 163°
2026-04-27 23:35 22.79345 -106.11506 34863 ft 504 kts 163°
2026-04-27 23:35 22.72811 -106.08742 34866 ft 503 kts 163°
2026-04-27 23:36 22.67381 -106.06449 34865 ft 503 kts 163°
2026-04-27 23:36 22.60851 -106.03693 34854 ft 503 kts 163°
2026-04-27 23:37 22.54361 -106.00954 34420 ft 495 kts 163°
2026-04-27 23:37 22.51178 -105.99610 34025 ft 489 kts 163°
2026-04-27 23:37 22.48054 -105.98293 33553 ft 485 kts 162°
2026-04-27 23:38 22.44921 -105.96973 33082 ft 481 kts 162°
2026-04-27 23:38 22.41803 -105.95660 32626 ft 476 kts 162°
2026-04-27 23:38 22.38723 -105.94364 32181 ft 472 kts 162°
2026-04-27 23:38 22.35679 -105.93085 31744 ft 467 kts 162°
2026-04-27 23:39 22.32661 -105.91816 31309 ft 463 kts 162°
2026-04-27 23:39 22.29674 -105.90561 30880 ft 458 kts 162°
2026-04-27 23:39 22.26750 -105.89334 30466 ft 454 kts 162°
2026-04-27 23:39 22.23815 -105.88102 30053 ft 450 kts 162°
2026-04-27 23:40 22.20908 -105.86882 29575 ft 446 kts 162°
2026-04-27 23:40 22.18024 -105.85672 29118 ft 441 kts 162°
2026-04-27 23:40 22.15183 -105.84481 28684 ft 435 kts 162°
2026-04-27 23:40 22.12383 -105.83307 28250 ft 430 kts 162°
2026-04-27 23:41 22.09614 -105.82147 27819 ft 425 kts 162°
2026-04-27 23:41 22.06877 -105.81001 27525 ft 418 kts 162°
2026-04-27 23:41 22.04175 -105.79869 27089 ft 414 kts 162°
2026-04-27 23:41 22.01499 -105.78750 26681 ft 411 kts 162°
2026-04-27 23:42 21.98851 -105.77642 26256 ft 407 kts 162°
2026-04-27 23:42 21.96251 -105.76555 25844 ft 404 kts 162°
2026-04-27 23:42 21.93627 -105.75459 25431 ft 401 kts 162°
2026-04-27 23:42 21.91030 -105.74373 25014 ft 399 kts 162°
2026-04-27 23:43 21.88448 -105.73295 24582 ft 397 kts 162°
2026-04-27 23:43 21.85868 -105.72217 24154 ft 396 kts 162°
2026-04-27 23:43 21.83309 -105.71149 23737 ft 394 kts 162°
2026-04-27 23:43 21.80754 -105.70083 23271 ft 392 kts 162°
2026-04-27 23:44 21.78217 -105.69008 22811 ft 391 kts 159°
2026-04-27 23:44 21.75826 -105.67678 22321 ft 392 kts 153°
2026-04-27 23:44 21.73505 -105.66145 21843 ft 390 kts 150°
2026-04-27 23:44 21.71229 -105.64567 21372 ft 389 kts 150°
2026-04-27 23:45 21.68951 -105.62988 20897 ft 387 kts 149°
2026-04-27 23:45 21.66684 -105.61439 20439 ft 385 kts 150°
2026-04-27 23:45 21.65331 -105.60525 20155 ft 384 kts 150°
2026-04-27 23:45 21.63070 -105.59012 19999 ft 371 kts 150°
2026-04-27 23:46 21.60866 -105.57550 19323 ft 369 kts 150°
2026-04-27 23:46 21.58710 -105.56127 18804 ft 363 kts 150°
2026-04-27 23:46 21.56599 -105.54737 18367 ft 355 kts 150°
2026-04-27 23:46 21.54513 -105.53365 17974 ft 350 kts 150°
2026-04-27 23:47 21.52442 -105.52004 17526 ft 347 kts 150°
2026-04-27 23:47 21.50389 -105.50656 17108 ft 345 kts 150°
2026-04-27 23:47 21.48337 -105.49308 16691 ft 346 kts 150°
2026-04-27 23:47 21.46289 -105.47963 16270 ft 342 kts 150°
2026-04-27 23:48 21.44273 -105.46639 15853 ft 337 kts 150°
2026-04-27 23:48 21.42288 -105.45335 15450 ft 332 kts 150°
2026-04-27 23:48 21.40326 -105.44048 15050 ft 329 kts 150°
2026-04-27 23:48 21.38377 -105.42769 14658 ft 328 kts 150°
2026-04-27 23:49 21.36427 -105.41491 14245 ft 328 kts 150°
2026-04-27 23:49 21.34486 -105.40218 13842 ft 327 kts 150°
2026-04-27 23:49 21.32550 -105.38949 13414 ft 327 kts 150°
2026-04-27 23:49 21.30608 -105.37677 12997 ft 325 kts 150°
2026-04-27 23:50 21.28713 -105.36437 12626 ft 323 kts 150°
2026-04-27 23:50 21.26803 -105.35187 12272 ft 320 kts 150°
2026-04-27 23:50 21.24903 -105.33944 11910 ft 318 kts 150°
2026-04-27 23:50 21.23025 -105.32716 11555 ft 316 kts 150°
2026-04-27 23:51 21.21156 -105.31493 11193 ft 314 kts 150°
2026-04-27 23:51 21.19295 -105.30276 10834 ft 312 kts 151°
2026-04-27 23:51 21.17443 -105.29065 10494 ft 311 kts 151°
2026-04-27 23:51 21.15603 -105.27863 10136 ft 310 kts 151°
2026-04-27 23:52 21.13770 -105.26665 9923 ft 304 kts 151°
2026-04-27 23:52 21.12011 -105.25514 9923 ft 290 kts 151°
2026-04-27 23:52 21.10319 -105.24407 9839 ft 278 kts 151°
2026-04-27 23:52 21.08693 -105.23345 9473 ft 272 kts 151°
2026-04-27 23:53 21.07081 -105.22294 8975 ft 272 kts 152°
2026-04-27 23:53 21.05457 -105.21237 8425 ft 275 kts 151°
2026-04-27 23:53 21.03821 -105.20170 7961 ft 274 kts 152°
2026-04-27 23:53 21.02194 -105.19110 7560 ft 274 kts 151°
2026-04-27 23:54 21.00573 -105.18052 7238 ft 273 kts 152°
2026-04-27 23:54 20.98935 -105.16988 6945 ft 277 kts 150°
2026-04-27 23:54 20.97291 -105.15914 6597 ft 282 kts 151°
2026-04-27 23:54 20.95618 -105.14823 6292 ft 281 kts 150°
2026-04-27 23:55 20.93944 -105.13733 5934 ft 280 kts 150°
2026-04-27 23:55 20.92304 -105.12666 5715 ft 269 kts 149°
2026-04-27 23:55 20.90825 -105.11542 5567 ft 256 kts 142°
2026-04-27 23:55 20.89436 -105.10297 5069 ft 261 kts 141°
2026-04-27 23:56 20.88059 -105.09056 4723 ft 258 kts 141°
2026-04-27 23:56 20.86655 -105.07875 4312 ft 256 kts 152°
2026-04-27 23:56 20.84978 -105.07448 4039 ft 246 kts 186°
2026-04-27 23:56 20.83401 -105.08003 3812 ft 237 kts 213°
2026-04-27 23:57 20.82138 -105.09130 3536 ft 238 kts 230°
2026-04-27 23:57 20.81060 -105.10443 3447 ft 230 kts 229°
2026-04-27 23:57 20.79996 -105.11685 3288 ft 226 kts 227°
2026-04-27 23:57 20.78923 -105.12910 2994 ft 224 kts 228°
2026-04-27 23:58 20.77872 -105.14113 2683 ft 218 kts 229°
2026-04-27 23:58 20.76858 -105.15274 2394 ft 210 kts 228°
2026-04-27 23:58 20.75869 -105.16408 2080 ft 206 kts 229°
2026-04-27 23:58 20.74914 -105.17501 1817 ft 200 kts 228°
2026-04-27 23:59 20.73977 -105.18574 1553 ft 192 kts 229°
2026-04-27 23:59 20.73092 -105.19587 1297 ft 181 kts 229°
2026-04-27 23:59 20.72262 -105.20539 1073 ft 166 kts 229°
2026-04-27 23:59 20.71510 -105.21401 863 ft 153 kts 229°
2026-04-28 00:00 20.70795 -105.22221 638 ft 149 kts 229°
2026-04-28 00:00 20.70095 -105.23005 414 ft 142 kts 229°
2026-04-28 00:00 20.69463 -105.23751 198 ft 129 kts 225°
2026-04-28 00:00 20.68855 -105.24447 54 ft 136 kts 226°
2026-04-28 00:01 20.68242 -105.25150 27 ft 116 kts 227°
2026-04-28 00:01 20.67799 -105.25660 29 ft 71 kts 227°
2026-04-28 00:01 20.67552 -105.25904 27 ft 28 kts 209°
2026-04-28 00:01 20.67430 -105.25960 28 ft 15 kts 200°
2026-04-28 00:02 20.67346 -105.25946 28 ft 13 kts 117°
2026-04-28 00:02 20.67390 -105.25868 28 ft 13 kts 47°
2026-04-28 00:02 20.67450 -105.25800 28 ft 12 kts 47°
2026-04-28 00:02 20.67508 -105.25733 28 ft 12 kts 47°
2026-04-28 00:03 20.67564 -105.25669 28 ft 12 kts 47°
2026-04-28 00:03 20.67619 -105.25605 28 ft 11 kts 47°
2026-04-28 00:03 20.67673 -105.25544 28 ft 11 kts 47°
2026-04-28 00:03 20.67725 -105.25484 28 ft 11 kts 47°
2026-04-28 00:04 20.67776 -105.25426 28 ft 11 kts 47°
2026-04-28 00:04 20.67872 -105.25315 28 ft 10 kts 47°
2026-04-28 00:04 20.67921 -105.25258 28 ft 11 kts 47°
2026-04-28 00:05 20.67982 -105.25188 28 ft 14 kts 47°
2026-04-28 00:05 20.68055 -105.25104 28 ft 16 kts 47°
2026-04-28 00:05 20.68132 -105.25016 28 ft 16 kts 47°
2026-04-28 00:05 20.68206 -105.24932 28 ft 15 kts 47°
2026-04-28 00:06 20.68277 -105.24849 28 ft 15 kts 47°
2026-04-28 00:06 20.68285 -105.24784 28 ft 9 kts 125°
2026-04-28 00:06 20.68240 -105.24740 28 ft 9 kts 139°
2026-04-28 00:06 20.68196 -105.24699 28 ft 8 kts 138°
2026-04-28 00:07 20.68154 -105.24658 28 ft 8 kts 137°
2026-04-28 00:07 20.68113 -105.24618 28 ft 8 kts 138°
2026-04-28 00:07 20.68075 -105.24580 28 ft 7 kts 142°
2026-04-28 00:07 20.68050 -105.24584 28 ft 3 kts 218°
2026-04-28 00:08 20.68035 -105.24601 28 ft 3 kts 227°
2026-04-28 00:08 20.68023 -105.24615 28 ft 1 kts 227°
2026-04-28 00:08 20.68020 -105.24619 28 ft 0 kts 227°
2026-04-28 00:08 20.68019 -105.24620 28 ft 0 kts 227°